Wind from 045

Air temperature 12.2° C
Dewpoint 8.9° C

Last reported at 2014-Apr-19 05:47 UTC.
Time now 2014-Apr-19 07:02 UTC

Location: N 43°50' E 011°08'.
View on Google Maps.

See reports from other nearby stations

Tides Stations Pressure Air Temp Water Temp Dewpoint Dewpoint depression Visibility Wind Speed Wind Dir Waves Ship positions

  
sailing weather and tide predictions

DW4707 Campi Bisenzio - Firenze IT weather

date/time (UTC)wind fromknots sea level pressurealtimeterstation pressurevisibilityair tempwater tempwave heightnotes
2014-Apr-19 05:47 045 12.2
2014-Apr-19 05:37 12.2
2014-Apr-19 05:27 045 1 gusting 2 12.2
2014-Apr-19 05:17 022 1 gusting 1 12.2
2014-Apr-19 05:07 069 12.2
2014-Apr-19 04:57 158 12.2
2014-Apr-19 04:47 022 12.8
2014-Apr-19 04:37 068 12.8
2014-Apr-19 04:27 202 0 gusting 0 12.8
2014-Apr-19 04:17 045 0 gusting 5 13.3
2014-Apr-19 04:07 022 5 gusting 5 13.9
2014-Apr-19 03:57 13.9
2014-Apr-19 03:47 068 13.9
2014-Apr-19 03:37 031 2 gusting 5 13.9
2014-Apr-19 03:27 090 13.9
2014-Apr-19 03:17 045 13.9
2014-Apr-19 03:07 348 13.9
2014-Apr-19 02:57 090 0 gusting 1 13.3
2014-Apr-19 02:47 022 13.3
2014-Apr-19 02:37 045 13.3
2014-Apr-19 02:27 045 13.3
2014-Apr-19 02:17 068 13.3
2014-Apr-19 02:07 051 13.3
2014-Apr-19 01:57 068 12.8
2014-Apr-19 01:47 045 12.8
2014-Apr-19 01:37 022 13.3
2014-Apr-19 01:27 045 12.8
2014-Apr-19 01:17 225 12.8
2014-Apr-19 01:07 12.8
2014-Apr-19 00:57 202 12.8
2014-Apr-19 00:47 202 12.8
2014-Apr-19 00:37 316 12.8
2014-Apr-19 00:27 12.8
2014-Apr-19 00:17 112 12.8
2014-Apr-19 00:07 236 13.3
2014-Apr-18 23:57 225 13.3
2014-Apr-18 23:47 225 13.3
2014-Apr-18 23:37 13.9
2014-Apr-18 23:27 022 13.9
2014-Apr-18 23:17 045 13.9
2014-Apr-18 23:07 085 13.9
2014-Apr-18 22:57 022 13.9
2014-Apr-18 22:47 022 13.9
2014-Apr-18 22:37 045 13.9
2014-Apr-18 22:27 022 13.9
2014-Apr-18 22:17 248 13.9
2014-Apr-18 22:07 292 13.9
2014-Apr-18 21:57 001 13.9
2014-Apr-18 21:47 045 13.9
2014-Apr-18 21:37 13.9
2014-Apr-18 21:27 252 13.9
2014-Apr-18 21:17 022 13.9
2014-Apr-18 21:07 338 13.9
2014-Apr-18 20:57 045 13.9
2014-Apr-18 20:47 180 13.9
2014-Apr-18 20:37 315 14.4
2014-Apr-18 20:27 292 14.4
2014-Apr-18 20:17 180 14.4
2014-Apr-18 20:07 180 14.4
2014-Apr-18 19:57 182 14.4
2014-Apr-18 19:47 202 14.4
2014-Apr-18 19:37 202 14.4
2014-Apr-18 19:27 202 14.4
2014-Apr-18 19:17 158 14.4
2014-Apr-18 19:07 325 14.4
2014-Apr-18 18:57 200 15.0
2014-Apr-18 18:47 158 15.0
2014-Apr-18 18:37 022 15.0
2014-Apr-18 18:27 022 15.0
2014-Apr-18 18:17 045 15.0
2014-Apr-18 18:07 062 15.6
2014-Apr-18 17:57 182 15.6
2014-Apr-18 17:47 022 15.6
2014-Apr-18 17:37 022 15.6
2014-Apr-18 17:27 054 15.6
2014-Apr-18 17:17 135 16.1
2014-Apr-18 17:07 191 16.1
2014-Apr-18 16:57 344 16.1
2014-Apr-18 16:47 022 16.7
2014-Apr-18 16:37 174 16.7
2014-Apr-18 16:27 045 16.7
2014-Apr-18 16:17 158 16.7
2014-Apr-18 16:07 022 16.7
2014-Apr-18 15:57 045 17.2
2014-Apr-18 15:47 022 17.2
2014-Apr-18 15:37 022 0 gusting 0 17.2
2014-Apr-18 15:27 063 17.8
2014-Apr-18 15:17 022 17.8
2014-Apr-18 15:07 055 17.8
2014-Apr-18 14:57 320 17.8
2014-Apr-18 14:47 338 18.3
2014-Apr-18 14:37 022 18.3
2014-Apr-18 14:27 026 18.9
2014-Apr-18 14:17 022 0 gusting 1 18.9
2014-Apr-18 14:07 19.4
2014-Apr-18 13:57 338 19.4
2014-Apr-18 13:47 042 0 gusting 1 20.0
2014-Apr-18 13:37 045 0 gusting 0 20.6
2014-Apr-18 13:27 347 20.0
2014-Apr-18 13:17 064 20.6
2014-Apr-18 13:07 20.0
2014-Apr-18 12:57 022 20.0
2014-Apr-18 12:47 022 20.0
2014-Apr-18 12:37 157 20.0
2014-Apr-18 12:27 045 20.6
2014-Apr-18 12:17 112 20.6
2014-Apr-18 12:07 022 20.0
2014-Apr-18 11:57 041 20.0
2014-Apr-18 11:47 336 20.0
2014-Apr-18 11:37 180 18.9
2014-Apr-18 11:27 128 18.9
2014-Apr-18 11:17 045 18.9
2014-Apr-18 11:07 090 18.9
2014-Apr-18 10:57 197 18.9
2014-Apr-18 10:47 045 18.3
2014-Apr-18 10:37 045 18.9
2014-Apr-18 10:27 090 18.3
2014-Apr-18 10:17 022 18.3
2014-Apr-18 10:07 17.8
2014-Apr-18 09:57 014 0 gusting 0 17.8
2014-Apr-18 09:47 045 17.8
2014-Apr-18 09:27 123 0 gusting 0 17.8
2014-Apr-18 09:17 180 17.2
2014-Apr-18 09:07 045 17.2
2014-Apr-18 08:57 083 16.7
2014-Apr-18 08:47 248 15.6
2014-Apr-18 08:37 225 15.0
2014-Apr-18 08:27 090 15.0
2014-Apr-18 08:17 068 14.4
2014-Apr-18 08:07 068 13.9
2014-Apr-18 07:57 073 14.4
2014-Apr-18 07:47 022 13.9
2014-Apr-18 07:37 045 13.9
2014-Apr-18 07:27 357 13.3
2014-Apr-18 07:17 227 13.3
2014-Apr-18 07:07 112 12.8
2014-Apr-18 06:57 174 12.8
2014-Apr-18 06:47 180 13.3
2014-Apr-18 06:37 045 11.1
2014-Apr-18 06:27 202 11.1
2014-Apr-18 06:17 202 10.6
2014-Apr-18 06:07 270 10.6
2014-Apr-18 05:57 164 8.3
2014-Apr-18 05:47 188 7.8
2014-Apr-18 05:37 180 7.2
2014-Apr-18 05:27 158 7.2
2014-Apr-18 05:17 310 6.7
2014-Apr-18 05:07 158 6.7
2014-Apr-18 04:57 202 6.7
2014-Apr-18 04:47 022 6.7
2014-Apr-18 04:37 112 6.7
2014-Apr-18 04:27 202 6.1
2014-Apr-18 04:17 180 6.1
2014-Apr-18 04:07 180 6.1
2014-Apr-18 03:57 158 6.7
2014-Apr-18 03:47 159 6.7
2014-Apr-18 03:37 135 6.7
2014-Apr-18 03:27 180 6.7
2014-Apr-18 03:17 180 6.7
2014-Apr-18 03:07 180 7.2
2014-Apr-18 02:57 180 7.2
2014-Apr-18 02:47 180 7.8
2014-Apr-18 02:37 202 7.8
2014-Apr-18 02:27 7.8
2014-Apr-18 02:17 131 7.2
2014-Apr-18 02:07 022 7.2
2014-Apr-18 01:57 203 7.2
2014-Apr-18 01:47 202 7.2
2014-Apr-18 01:37 180 7.2
2014-Apr-18 01:27 248 7.2
2014-Apr-18 01:17 273 7.8
2014-Apr-18 01:07 180 7.8
2014-Apr-18 00:57 174 8.3
2014-Apr-18 00:47 120 8.3
2014-Apr-18 00:37 270 7.8
2014-Apr-18 00:27 340 8.3
2014-Apr-18 00:17 172 8.3
2014-Apr-18 00:07 202 8.3
2014-Apr-17 23:57 191 8.3
2014-Apr-17 23:47 180 8.3
2014-Apr-17 23:37 202 8.9
2014-Apr-17 23:27 134 8.9
2014-Apr-17 23:17 225 8.9
2014-Apr-17 23:07 180 8.9
2014-Apr-17 22:57 180 8.9
2014-Apr-17 22:47 180 9.4
2014-Apr-17 22:37 202 9.4
2014-Apr-17 22:27 180 9.4
2014-Apr-17 22:17 162 10.0
2014-Apr-17 22:07 180 10.0
2014-Apr-17 21:57 068 10.0
2014-Apr-17 21:47 016 10.6
2014-Apr-17 21:37 315 11.1
2014-Apr-17 21:27 045 11.1
2014-Apr-17 21:17 11.1
2014-Apr-17 21:07 202 11.1
2014-Apr-17 20:57 180 11.1
2014-Apr-17 20:47 158 11.7
2014-Apr-17 20:37 090 11.7
2014-Apr-17 20:27 11.7
2014-Apr-17 20:17 279 12.2
2014-Apr-17 20:07 201 12.2
2014-Apr-17 19:57 022 12.8
2014-Apr-17 19:47 033 12.8
2014-Apr-17 19:37 13.3
2014-Apr-17 19:27 045 0 gusting 0 13.9
2014-Apr-17 19:17 352 13.9
2014-Apr-17 19:07 068 14.4
2014-Apr-17 18:57 022 15.0
2014-Apr-17 18:47 045 15.6
2014-Apr-17 18:37 022 15.6
2014-Apr-17 18:27 022 16.1
2014-Apr-17 18:17 030 16.1
2014-Apr-17 18:07 068 16.7
2014-Apr-17 17:57 022 16.7
2014-Apr-17 17:47 036 1 gusting 1 16.7
2014-Apr-17 17:37 022 0 gusting 1 17.2
2014-Apr-17 17:27 068 0 gusting 2 17.2
2014-Apr-17 17:17 034 0 gusting 6 17.8
2014-Apr-17 17:07 022 2 gusting 6 17.8
2014-Apr-17 16:57 045 3 gusting 5 17.8
2014-Apr-17 16:47 015 1 gusting 1 17.8
2014-Apr-17 16:37 020 1 gusting 4 18.3
2014-Apr-17 16:27 022 0 gusting 2 18.3
2014-Apr-17 16:17 008 1 gusting 2 18.9
2014-Apr-17 16:07 045 18.9
2014-Apr-17 15:57 045 4 gusting 5 18.9
2014-Apr-17 15:47 343 0 gusting 5 18.9
2014-Apr-17 15:37 057 0 gusting 5 18.9
2014-Apr-17 15:27 18.9
2014-Apr-17 15:17 357 1 gusting 6 18.9
2014-Apr-17 15:07 133 2 gusting 5 18.9
2014-Apr-17 14:57 022 2 gusting 4 18.9
2014-Apr-17 14:47 304 1 gusting 4 18.9
2014-Apr-17 14:37 063 1 gusting 1 18.9
2014-Apr-17 14:27 18.9
2014-Apr-17 14:17 18.9
2014-Apr-17 14:07 024 1 gusting 6 18.9
2014-Apr-17 13:57 022 2 gusting 5 19.4
2014-Apr-17 13:47 029 1 gusting 2 19.4
2014-Apr-17 13:37 047 18.9
2014-Apr-17 13:27 19.4
2014-Apr-17 13:17 022 0 gusting 1 19.4
2014-Apr-17 13:07 045 1 gusting 2 18.9
2014-Apr-17 12:57 18.9
2014-Apr-17 12:47 063 3 gusting 4 19.4
2014-Apr-17 12:37 004 1 gusting 4 18.9
2014-Apr-17 12:27 022 1 gusting 4 19.4
2014-Apr-17 12:17 328 2 gusting 5 18.9
2014-Apr-17 12:07 016 4 gusting 6 19.4
2014-Apr-17 11:57 022 1 gusting 2 18.9
2014-Apr-17 11:47 338 0 gusting 0 19.4
2014-Apr-17 11:37 038 1 gusting 1 18.9
2014-Apr-17 11:27 022 19.4
2014-Apr-17 11:17 018 0 gusting 2 18.3
2014-Apr-17 11:07 043 3 gusting 6 18.9
2014-Apr-17 10:57 022 0 gusting 4 18.9
2014-Apr-17 10:47 338 0 gusting 4 18.3
2014-Apr-17 10:37 026 1 gusting 4 18.9
2014-Apr-17 10:27 180 0 gusting 1 18.3
2014-Apr-17 10:17 068 18.9
2014-Apr-17 10:07 016 6 gusting 11 17.8
2014-Apr-17 09:57 18.3
2014-Apr-17 09:47 045 18.9
2014-Apr-17 09:37 022 18.3
2014-Apr-17 09:27 045 0 gusting 1 17.8
2014-Apr-17 09:17 024 17.8
2014-Apr-17 09:07 294 17.2
2014-Apr-17 08:57 202 16.7
2014-Apr-17 08:47 090 15.6
2014-Apr-17 08:37 307 15.0
2014-Apr-17 08:27 045 14.4
2014-Apr-17 08:17 090 15.0
2014-Apr-17 08:07 057 14.4
2014-Apr-17 07:57 180 14.4
2014-Apr-17 07:47 045 14.4
2014-Apr-17 07:37 045 13.3
2014-Apr-17 07:27 045 12.8
2014-Apr-17 07:17 045 12.2
2014-Apr-17 07:07 150 11.7